SCP
0 0 0 0 0 0 0 0 0 0 0 0 0 -0 -0 -0 0 0 -0 -0 -0 0 0 0 0 -0 -0 -0 -0 -0 -0 -0 -0 -0 -0 -0 -0 -0 -0 0 0 0 0 -0 -0 -0 -0 -0 -0
0 0 0 0 0 0 0 0 0 0 0 0 0 0 0 0 0 0 -0 -0 -0 0 0 0 0 -0 -0 -0 -0 -0 -0 -0 -0 0 0 0 0 0 0 0 0 0 0 -0 -0 -0 -0 -0 -0
0 0 0 0 0 0 0 0 0 0 0 0 0 0 0 0 -0 0 -0 -0 -0 -0 -0 0 0 0 -0 -0 -0 -0 0 0 0 0 0 0 0 0 0 0 0 0 0 0 -0 -0 -0 0 0
0 0 0 0 0 0 0 0 0 0 0 0 0 0 0 0 0 -0 -0 -0 -0 -0 -0 -0 -0 -0 0 -0 -0 -0 0 0 0 0 0 0 0 0 0 0 0 0 0 0 0 -0 0 0 0
0 0 0 0 0 0 0 0 0 0 0 0 0 0 0 0 0 0 -0 -0 -0 -0 -0 -0 -0 -0 -0 0 0 0 0 0 0 0 0 0 0 0 0 0 0 0 0 0 0 0 0 0 0
0 0 0 0 0 0 0 0 0 0 0 0 0 0 0 0 0 0 0 -0 -0 -0 -0 -0 -0 -0 -0 -0 0 0 0 0 0 0 0 0 0 0 0 0 0 0 0 0 0 0 0 0 0
0 0 0 0 0 0 0 0 0 0 0 0 0 0 0 0 0 0 0 0 0 -0 -0 -0 -0 -0 -0 -0 -0 0 0 0 0 0 0 0 0 0 0 0 0 0 0 0 0 0 0 0 0
0 0 0 0 0 0 0 0 0 0 0 0 0 0 0 0 0 0 0 0 0 -0 -0 -0 -0 -0 0 0 -0 -0 0 0 0 0 0 0 0 0 0 0 0 0 0 0 0 0 0 0 0
0 0 0 0 0 0 0 0 0 0 0 0 0 0 0 0 0 0 0 0 0 0 0 0 0 0 0 0 0 0 -0 0 0 0 0 0 0 0 0 0 0 0 0 0 0 0 0 0 0
0 0 0 0 0 0 0 0 0 0 0 0 0 0 0 0 0 0 0 0 0 0 0 0 0 0 0 0 0 0 0 0 0 0 0 0 0 0 0 0 0 0 0 0 0 0 0 0 0
0 0 0 0 0 0 0 0 0 0 0 0 0 0 0 0 0 0 0 0 0 0 0 0 0 0 0 0 0 0 0 0 0 0 0 0 0 0 0 0 0 0 0 0 0 0 0 0 0
0 0 0 0 0 0 0 0 0 0 0 0 0 0 0 0 0 0 0 0 0 0 0 0 0 0 0 0 0 0 0 0 0 0 0 0 0 0 0 0 0 0 0 0 0 0 0 0 0
0 0 -0 -0 0 0 0 0 0 0 0 0 0 0 0 0 0 0 0 0 0 0 0 0 0 0 0 0 0 0 0 0 0 0 0 0 0 0 0 0 0 0 0 0 0 0 0 0 0
0 0 -0 -0 -0 0 0 0 0 0 0 0 0 0 0 0 0 0 0 0 0 0 0 0 0 0 0 0 0 0 0 0 0 0 0 0 0 0 0 0 0 0 0 0 0 0 0 0 0
-0 -0 -0 -0 0 0 0 0 0 0 0 0 0 0 0 0 0 0 0 -0 -0 -0 -0 0 0 0 0 0 0 0 0 0 0 0 0 0 0 0 0 0 0 0 0 0 0 0 0 0 0
0 0 0 0 0 0 0 0 0 0 0 0 0 0 0 0 0 0 0 0 0 0 0 0 0 0 0 0 0 0 0 0 0 0 0 0 0 0 0 0 0 0 0 0 0 0 0 0 0
0 0 0 0 -0 0 0 0 0 0 0 0 0 0 0 0 0 0 0 0 0 0 0 0 0 0 0 0 0 0 0 0 0 0 0 0 0 0 0 0 0 0 0 0 0 0 0 0 0
-0 -0 0 0 0 -0 0 0 0 0 0 0 0 0 0 0 0 0 0 0 -0 -0 -0 -0 0 0 0 0 0 0 0 0 0 0 0 0 0 0 0 0 0 0 0 -0 0 0 0 0 0
-0 -0 -0 0 -0 -0 0 0 0 0 0 0 0 0 0 0 0 0 -0 -0 -0 -0 -0 -0 0 0 0 0 0 0 0 0 0 0 0 0 0 0 0 0 0 0 0 0 0 0 0 0 0
-0 -0 -0 0 -0 -0 -0 -0 0 0 0 0 0 0 0 0 0 -0 -0 -0 -0 -0 -0 -0 -0 -0 -0 -0 -0 -0 -0 -0 -0 0 0 0 0 0 0 0 0 0 0 0 0 0 0 0 0
-0 -0 0 0 -0 -0 0 -0 -0 -0 0 0 0 0 -0 -0 -0 -0 -0 -0 -0 -0 -0 -0 -0 -0 -0 -0 -0 -0 -0 -0 0 0 0 0 0 -0 -0 0 0 0 0 0 0 0 0 0 0
-0 -0 -0 -0 -0 -0 -0 -0 -0 -0 -0 0 0 0 -0 -0 -0 -0 -0 -0 -0 -0 -0 -0 -0 -0 -0 -0 -0 -0 -0 -0 -0 -0 -0 -0 -0 -0 -0 -0 -0 -0 -0 0 0 0 0 0 0
-0 -0 -0 -0 0 0 0 0 -0 0 -0 -0 0 0 0 -0 -0 -0 -0 -0 -0 -0 -0 -0 -0 -0 -0 -0 -0 -0 -0 -0 -0 -0 -0 -0 -0 -0 -0 -0 -0 -0 -0 -0 0 0 0 0 0
-0 -0 0 0 0 0 -0 0 -0 0 0 0 0 0 0 0 -0 -0 -0 -0 -0 -0 -0 -0 -0 -0 -0 -0 -0 -0 -0 -0 -0 -0 -0 -0 -0 -0 -0 -0 -0 -0 -0 -0 -0 0 0 0 0
0 0 0 0 0 -0 0 0 -0 0 0 0 0 0 0 0 -0 -0 -0 -0 -0 -0 -0 -0 -0 -0 -0 -0 -0 -0 -0 -0 -0 -0 -0 -0 -0 -0 -0 -0 0 -0 -0 -0 -0 -0 -0 0 0
0 0 0 0 0 0 0 0 0 0 0 0 0 0 0 0 0 -0 -0 -0 -0 -0 -0 -0 -0 -0 -0 -0 -0 -0 -0 -0 -0 -0 -0 -0 -0 -0 -0 -0 -0 -0 -0 -0 -0 -0 -0 -0 -0
0 0 0 0 0 0 0 0 0 0 0 0 0 0 0 0 0 -0 0 0 0 0 -0 0 0 -0 -0 -0 -0 -0 -0 -0 -0 -0 -0 -0 -0 -0 -0 -0 -0 -0 -0 -0 -0 -0 -0 -0 -0
0 0 0 0 0 0 0 0 0 0 -0 0 0 0 0 0 0 0 0 0 0 0 0 0 0 0 0 0 0 -0 -0 -0 -0 -0 -0 -0 -0 -0 -0 -0 -0 -0 -0 -0 -0 -0 -0 -0 -0
0 0 0 0 0 0 0 0 0 0 0 0 0 0 0 0 0 0 0 0 0 0 0 0 0 0 0 0 0 0 0 0 -0 -0 -0 -0 -0 -0 -0 0 0 0 0 0 0 -0 -0 -0 -0
0 0 0 0 0 0 0 0 0 0 0 0 0 0 0 0 0 0 0 0 0 0 0 0 0 0 0 0 0 0 0 0 0 0 -0 -0 -0 -0 -0 0 0 0 0 0 0 0 -0 -0 -0
Wind_Speed_500mb
21 28 7 2 5 7 5 8 5 19 9 37 38 42 41 39 12 13 13 21 12 22 16 14 12 12 12 12 13 14 14 10 7 5 5 5 5 5 7 10 13 19 16 14 12 9 12 15 17
2 29 13 8 7 6 3 9 13 8 13 5 32 31 30 16 47 20 22 17 19 20 12 12 13 13 10 10 13 13 10 7 6 4 3 4 6 5 2 4 10 14 21 14 8 13 17 18 17
8 15 18 8 7 6 4 11 22 19 26 7 13 31 16 32 34 36 37 23 11 17 15 14 12 12 14 11 12 12 7 5 2 3 6 8 8 7 6 3 8 17 23 17 14 13 21 18 16
18 11 18 9 15 19 9 24 28 17 15 34 35 30 25 43 34 41 39 26 22 17 16 17 17 16 12 12 10 9 7 5 1 6 10 13 15 12 8 4 4 11 27 17 16 17 20 18 16
27 18 10 7 14 5 21 40 37 31 12 33 22 14 16 56 36 40 43 25 23 22 18 18 16 14 13 10 10 8 6 3 3 4 7 11 12 12 12 8 3 0 5 13 15 19 18 18 18
15 11 8 10 9 32 18 48 26 38 35 30 25 20 18 43 42 53 50 37 27 23 21 21 16 14 12 10 8 9 6 4 5 9 12 12 10 9 8 6 4 1 3 7 12 16 18 20 18
13 6 10 25 14 14 25 14 47 36 39 43 21 13 15 65 46 55 57 55 44 20 20 12 11 14 11 11 8 8 10 8 9 10 11 13 13 12 10 5 3 3 3 6 9 13 16 18 17
14 9 17 13 16 12 27 26 58 50 55 12 23 26 17 54 53 51 63 60 59 23 14 5 1 4 9 10 11 9 7 15 16 18 17 17 16 15 13 11 9 9 8 9 11 13 15 16 15
11 7 13 14 19 12 12 25 45 46 73 85 49 44 34 46 67 64 70 56 54 49 31 13 2 3 4 8 11 14 12 9 13 20 26 27 25 22 19 18 17 15 14 14 16 17 19 19 19
15 8 13 21 33 33 51 35 31 37 55 54 59 58 66 72 81 88 93 79 78 69 59 48 35 25 2 6 12 18 21 19 15 16 16 23 30 32 29 27 24 23 22 22 22 23 24 25 24
14 14 43 54 66 68 59 77 33 11 34 45 42 42 60 77 88 90 89 88 81 82 71 61 55 44 36 20 5 8 4 26 25 24 22 22 24 30 38 39 34 32 30 30 30 31 31 31 31
31 52 39 42 35 35 46 44 67 62 34 32 35 40 53 76 83 84 83 81 80 76 74 72 66 64 44 40 37 34 12 24 6 18 26 26 30 35 38 42 43 43 39 38 38 38 38 39 38
39 43 46 74 67 63 68 62 41 54 38 37 39 53 68 71 76 76 73 70 67 68 71 68 63 66 63 53 46 43 38 37 31 25 10 21 27 45 48 50 47 46 48 48 47 47 46 47 47
46 59 49 57 63 48 66 39 15 32 31 40 46 53 67 73 72 72 78 77 74 70 66 60 62 60 56 55 54 55 51 47 44 34 36 26 27 28 30 41 55 43 54 58 57 55 55 55 55
58 42 44 40 10 11 4 38 25 24 25 35 46 58 67 69 69 75 72 73 73 73 69 69 63 56 55 57 52 50 52 55 53 52 43 44 34 26 29 18 25 45 57 61 63 63 64 64 63
8 10 8 28 21 16 9 11 14 16 26 35 43 55 62 64 66 66 67 68 70 72 73 68 65 61 59 55 53 51 51 50 53 53 48 49 52 41 35 35 29 26 30 34 56 57 71 73 73
17 7 12 7 49 11 11 13 12 14 23 31 36 46 50 55 60 62 64 67 71 72 70 69 69 68 63 60 57 56 53 53 55 53 53 52 52 50 51 44 40 45 36 32 33 53 59 76 78
5 11 15 14 17 40 35 28 18 19 22 26 31 40 44 48 51 53 58 62 66 70 70 69 66 65 67 67 63 62 60 59 57 56 55 54 52 52 49 48 48 45 41 48 42 35 35 52 71
14 19 16 5 5 16 15 18 10 17 23 27 31 36 40 43 42 47 52 57 62 65 68 70 68 68 67 70 73 72 72 67 64 63 62 60 58 56 54 54 54 50 49 46 47 46 42 34 25
14 20 9 4 9 12 8 8 4 8 12 18 21 27 33 38 44 46 49 53 57 60 63 67 66 65 67 68 70 71 69 67 67 66 66 66 66 63 60 59 57 55 53 51 52 52 47 52 36
12 9 5 9 9 12 9 3 6 2 8 10 15 18 23 32 41 47 49 50 50 52 57 62 62 63 66 68 69 69 69 70 71 71 69 68 67 66 65 63 62 60 59 56 53 52 52 54 44
6 5 2 13 5 7 5 5 7 9 8 5 5 10 15 28 37 44 50 48 44 41 44 52 56 58 61 67 71 76 76 77 74 73 69 66 65 65 65 65 64 64 62 60 57 52 51 54 54
5 2 5 5 8 7 9 3 5 6 9 10 11 4 7 24 34 43 46 43 42 32 34 42 47 49 55 62 70 74 73 70 69 69 70 69 67 65 64 65 65 65 65 64 61 57 52 51 54
6 6 10 7 5 6 7 6 5 9 11 8 23 17 8 10 33 41 36 38 36 27 24 32 38 41 49 58 66 74 74 72 71 71 72 72 70 69 69 68 66 64 65 67 68 64 58 54 52
8 9 6 9 8 6 4 4 13 9 12 17 34 24 12 11 28 40 38 38 35 26 19 28 35 40 49 60 69 75 71 71 71 73 76 77 77 74 72 70 69 69 67 66 67 68 67 61 58
8 8 8 7 1 8 8 8 6 4 12 19 23 17 17 16 31 41 41 38 36 30 23 30 36 42 49 59 69 72 70 72 73 74 76 78 78 78 76 76 73 68 65 68 68 67 68 69 65
6 8 6 15 2 6 4 11 7 5 11 21 24 21 19 14 37 37 38 35 34 31 29 33 38 41 47 57 68 70 68 70 72 72 74 79 79 80 80 78 77 74 70 67 68 70 69 68 69
5 12 6 7 4 7 8 10 8 10 17 22 29 30 25 18 37 33 34 35 36 35 32 34 39 42 47 57 65 71 73 68 70 75 79 81 78 78 79 81 81 77 72 70 69 68 65 67 66
4 4 12 9 5 9 2 11 12 14 16 16 38 35 32 30 43 33 33 34 38 37 33 34 39 43 49 58 66 72 74 69 72 77 83 80 79 79 79 79 80 78 75 71 70 68 65 64 65
3 8 6 8 8 2 5 13 9 21 17 19 26 28 30 33 43 33 32 33 35 40 41 41 43 46 52 59 68 74 77 73 72 81 85 78 80 81 84 83 80 77 73 71 70 70 66 64 64
Wind_Direction_500mb
51 23 8 48 63 64 53 26 323 9 58 50 69 78 82 51 18 80 341 337 96 179 175 165 168 168 171 164 155 161 154 149 139 112 86 54 47 85 118 138 148 139 126 164 194 187 170 156 152
324 29 52 79 80 74 48 351 350 307 318 320 51 66 55 70 22 348 37 46 115 164 163 155 158 167 162 152 158 153 151 146 131 102 52 2 342 343 309 189 179 178 145 139 158 199 184 173 167
185 34 46 55 66 61 350 10 315 315 27 87 101 51 42 343 348 354 6 40 134 154 158 168 164 172 157 179 170 160 155 150 125 22 358 343 333 332 319 276 222 198 192 164 178 197 169 182 185
179 68 45 61 71 38 32 326 325 328 44 64 101 80 83 18 359 2 28 67 161 161 171 175 163 152 183 179 179 174 185 173 93 18 359 347 340 331 326 324 264 226 222 204 191 194 185 195 202
125 76 77 67 51 59 31 12 32 45 55 25 44 87 71 12 30 39 43 99 157 166 179 176 181 175 167 221 213 214 224 261 329 351 351 346 343 342 345 353 19 263 173 186 186 183 201 213 219
78 92 104 106 105 39 22 19 34 37 29 15 53 85 69 11 29 47 55 76 102 161 185 184 178 178 175 186 232 244 241 281 313 327 331 336 336 334 337 347 352 8 169 179 189 203 217 228 233
90 70 105 118 90 43 24 24 31 36 36 20 31 62 46 26 34 50 54 64 85 131 190 165 167 186 191 198 207 255 282 292 303 305 308 315 322 318 311 297 269 245 207 212 215 223 228 237 243
108 98 111 109 116 78 43 57 52 49 37 42 51 34 10 17 41 56 57 61 65 115 143 183 127 204 211 215 212 219 257 307 312 307 300 299 303 300 293 285 270 254 248 243 238 235 237 238 241
69 87 128 130 127 113 65 79 63 67 65 61 67 59 45 45 53 56 58 58 65 69 72 69 4 294 258 232 227 231 245 253 292 313 314 306 299 296 289 284 275 267 258 255 252 248 245 245 246
38 82 57 94 111 94 65 69 84 62 54 52 52 55 57 56 56 54 53 49 46 46 45 51 52 59 142 239 248 241 236 232 248 261 284 304 303 298 292 286 279 270 265 259 254 252 251 251 253
19 90 100 92 107 98 83 56 58 49 49 38 37 37 48 55 55 55 55 54 51 46 43 41 41 38 56 67 50 63 47 213 227 257 258 262 277 291 296 293 286 279 272 267 264 261 260 257 258
90 68 63 80 84 85 73 83 63 60 61 49 47 52 55 55 52 50 51 50 50 47 45 42 35 39 31 39 49 31 334 35 354 257 244 267 271 273 273 281 289 287 279 274 270 268 266 263 262
68 89 76 84 79 81 82 72 69 54 54 62 53 53 58 59 56 54 51 47 45 46 42 43 42 41 43 39 27 30 20 20 23 29 347 293 267 269 264 268 268 275 280 279 273 271 269 268 266
106 83 70 76 85 78 74 51 73 43 54 55 59 58 56 54 53 52 46 45 44 39 39 38 35 36 39 41 39 34 36 27 15 360 8 11 3 323 290 266 256 266 274 273 272 272 271 269 267
114 100 79 25 46 142 85 40 47 54 55 59 57 61 64 60 54 49 45 42 38 35 33 33 34 32 31 32 35 36 32 33 32 30 10 1 353 347 356 320 263 259 265 264 267 267 268 267 267
44 61 72 23 24 42 75 84 42 69 71 58 58 61 62 58 54 50 45 41 37 33 31 29 28 28 29 28 27 28 26 24 24 24 22 19 17 4 336 340 335 333 285 284 265 276 266 263 265
17 73 27 41 13 114 104 124 126 68 71 66 60 62 59 57 55 50 44 40 35 32 28 25 23 25 26 27 26 25 24 22 19 17 18 16 15 11 12 360 337 320 331 329 297 263 265 272 261
53 97 52 54 7 77 94 114 107 90 84 76 70 66 61 55 50 46 43 37 32 29 27 25 24 24 22 23 25 26 24 22 19 16 13 8 5 4 4 1 0 354 336 309 319 311 287 263 270
97 89 93 49 306 60 73 100 95 94 87 81 76 70 63 54 48 41 37 31 27 24 22 22 20 20 19 19 17 20 22 23 23 20 16 11 6 3 1 358 358 358 0 351 344 303 319 306 299
70 90 71 106 38 86 122 93 106 90 74 80 76 64 59 53 43 36 28 24 20 18 20 20 20 18 20 18 17 15 16 16 17 17 17 13 11 8 4 359 356 354 351 353 354 351 326 290 321
33 85 127 123 103 66 131 151 190 176 128 92 79 69 59 44 32 26 19 13 9 13 17 17 17 16 15 14 11 9 7 8 6 8 8 9 7 6 5 3 359 354 350 348 349 348 348 334 314
72 353 132 116 86 143 16 261 250 194 199 183 114 79 58 38 28 17 9 4 1 6 11 14 13 15 17 15 13 10 6 2 359 356 356 358 0 0 359 359 359 358 355 349 346 344 342 338 332
90 133 95 90 87 90 345 65 261 140 231 223 210 149 64 33 16 7 2 0 1 357 4 8 11 11 10 8 6 4 2 359 354 349 348 349 350 352 352 352 352 352 352 351 346 341 337 335 334
124 94 49 55 77 36 256 121 248 192 204 185 206 204 197 20 9 358 356 353 352 354 355 357 3 5 4 4 2 360 357 354 350 348 346 344 344 344 344 343 344 345 345 345 344 342 337 330 325
60 59 358 6 15 208 344 51 245 229 216 197 192 204 216 284 341 346 344 348 350 348 340 345 350 356 358 358 357 356 355 354 351 347 345 342 340 339 338 338 336 336 337 337 338 339 337 331 325
48 130 140 195 285 270 333 242 250 247 195 184 198 208 234 284 327 338 342 343 342 342 331 336 341 346 351 352 352 352 351 350 348 346 343 339 336 334 333 333 331 330 328 328 330 331 333 331 326
266 52 155 104 70 38 270 283 277 168 208 207 214 229 248 286 332 339 344 346 343 337 329 328 333 338 342 345 346 348 347 344 342 340 339 336 333 330 329 328 327 325 324 324 324 324 325 325 325
90 141 64 12 60 313 292 282 242 214 226 227 234 239 249 276 330 334 339 341 339 332 323 323 327 328 333 337 340 342 343 340 337 336 336 334 330 327 325 324 324 323 322 322 322 322 320 319 321
19 29 50 107 104 160 269 272 209 209 211 217 234 242 255 258 325 320 326 333 339 335 325 320 323 322 325 330 334 336 339 336 334 333 332 330 328 327 325 322 320 319 319 320 321 320 318 315 315
185 188 137 113 258 80 127 272 217 214 218 228 234 236 264 271 309 306 315 325 338 341 331 323 321 320 323 324 329 332 334 332 328 328 328 327 325 324 323 322 320 317 315 317 318 317 316 314 312
Wind_Speed_850mb
21 28 7 2 5 7 5 8 5 19 9 37 38 42 41 39 12 13 13 21 12 22 16 14 12 12 12 12 13 14 14 10 7 5 5 5 5 5 7 10 13 19 16 14 12 9 12 15 17
2 29 13 8 7 6 3 9 13 8 13 5 32 31 30 16 47 20 22 17 19 20 12 12 13 13 10 10 13 13 10 7 6 4 3 4 6 5 2 4 10 14 21 14 8 13 17 18 17
8 15 18 8 7 6 4 11 22 19 26 7 13 31 16 32 34 36 37 23 11 17 15 14 12 12 14 11 12 12 7 5 2 3 6 8 8 7 6 3 8 17 23 17 14 13 21 18 16
18 11 18 9 15 19 9 24 28 17 15 34 35 30 25 43 34 41 39 26 22 17 16 17 17 16 12 12 10 9 7 5 1 6 10 13 15 12 8 4 4 11 27 17 16 17 20 18 16
27 18 10 7 14 5 21 40 37 31 12 33 22 14 16 56 36 40 43 25 23 22 18 18 16 14 13 10 10 8 6 3 3 4 7 11 12 12 12 8 3 0 5 13 15 19 18 18 18
15 11 8 10 9 32 18 48 26 38 35 30 25 20 18 43 42 53 50 37 27 23 21 21 16 14 12 10 8 9 6 4 5 9 12 12 10 9 8 6 4 1 3 7 12 16 18 20 18
13 6 10 25 14 14 25 14 47 36 39 43 21 13 15 65 46 55 57 55 44 20 20 12 11 14 11 11 8 8 10 8 9 10 11 13 13 12 10 5 3 3 3 6 9 13 16 18 17
14 9 17 13 16 12 27 26 58 50 55 12 23 26 17 54 53 51 63 60 59 23 14 5 1 4 9 10 11 9 7 15 16 18 17 17 16 15 13 11 9 9 8 9 11 13 15 16 15
11 7 13 14 19 12 12 25 45 46 73 85 49 44 34 46 67 64 70 56 54 49 31 13 2 3 4 8 11 14 12 9 13 20 26 27 25 22 19 18 17 15 14 14 16 17 19 19 19
15 8 13 21 33 33 51 35 31 37 55 54 59 58 66 72 81 88 93 79 78 69 59 48 35 25 2 6 12 18 21 19 15 16 16 23 30 32 29 27 24 23 22 22 22 23 24 25 24
14 14 43 54 66 68 59 77 33 11 34 45 42 42 60 77 88 90 89 88 81 82 71 61 55 44 36 20 5 8 4 26 25 24 22 22 24 30 38 39 34 32 30 30 30 31 31 31 31
31 52 39 42 35 35 46 44 67 62 34 32 35 40 53 76 83 84 83 81 80 76 74 72 66 64 44 40 37 34 12 24 6 18 26 26 30 35 38 42 43 43 39 38 38 38 38 39 38
39 43 46 74 67 63 68 62 41 54 38 37 39 53 68 71 76 76 73 70 67 68 71 68 63 66 63 53 46 43 38 37 31 25 10 21 27 45 48 50 47 46 48 48 47 47 46 47 47
46 59 49 57 63 48 66 39 15 32 31 40 46 53 67 73 72 72 78 77 74 70 66 60 62 60 56 55 54 55 51 47 44 34 36 26 27 28 30 41 55 43 54 58 57 55 55 55 55
58 42 44 40 10 11 4 38 25 24 25 35 46 58 67 69 69 75 72 73 73 73 69 69 63 56 55 57 52 50 52 55 53 52 43 44 34 26 29 18 25 45 57 61 63 63 64 64 63
8 10 8 28 21 16 9 11 14 16 26 35 43 55 62 64 66 66 67 68 70 72 73 68 65 61 59 55 53 51 51 50 53 53 48 49 52 41 35 35 29 26 30 34 56 57 71 73 73
17 7 12 7 49 11 11 13 12 14 23 31 36 46 50 55 60 62 64 67 71 72 70 69 69 68 63 60 57 56 53 53 55 53 53 52 52 50 51 44 40 45 36 32 33 53 59 76 78
5 11 15 14 17 40 35 28 18 19 22 26 31 40 44 48 51 53 58 62 66 70 70 69 66 65 67 67 63 62 60 59 57 56 55 54 52 52 49 48 48 45 41 48 42 35 35 52 71
14 19 16 5 5 16 15 18 10 17 23 27 31 36 40 43 42 47 52 57 62 65 68 70 68 68 67 70 73 72 72 67 64 63 62 60 58 56 54 54 54 50 49 46 47 46 42 34 25
14 20 9 4 9 12 8 8 4 8 12 18 21 27 33 38 44 46 49 53 57 60 63 67 66 65 67 68 70 71 69 67 67 66 66 66 66 63 60 59 57 55 53 51 52 52 47 52 36
12 9 5 9 9 12 9 3 6 2 8 10 15 18 23 32 41 47 49 50 50 52 57 62 62 63 66 68 69 69 69 70 71 71 69 68 67 66 65 63 62 60 59 56 53 52 52 54 44
6 5 2 13 5 7 5 5 7 9 8 5 5 10 15 28 37 44 50 48 44 41 44 52 56 58 61 67 71 76 76 77 74 73 69 66 65 65 65 65 64 64 62 60 57 52 51 54 54
5 2 5 5 8 7 9 3 5 6 9 10 11 4 7 24 34 43 46 43 42 32 34 42 47 49 55 62 70 74 73 70 69 69 70 69 67 65 64 65 65 65 65 64 61 57 52 51 54
6 6 10 7 5 6 7 6 5 9 11 8 23 17 8 10 33 41 36 38 36 27 24 32 38 41 49 58 66 74 74 72 71 71 72 72 70 69 69 68 66 64 65 67 68 64 58 54 52
8 9 6 9 8 6 4 4 13 9 12 17 34 24 12 11 28 40 38 38 35 26 19 28 35 40 49 60 69 75 71 71 71 73 76 77 77 74 72 70 69 69 67 66 67 68 67 61 58
8 8 8 7 1 8 8 8 6 4 12 19 23 17 17 16 31 41 41 38 36 30 23 30 36 42 49 59 69 72 70 72 73 74 76 78 78 78 76 76 73 68 65 68 68 67 68 69 65
6 8 6 15 2 6 4 11 7 5 11 21 24 21 19 14 37 37 38 35 34 31 29 33 38 41 47 57 68 70 68 70 72 72 74 79 79 80 80 78 77 74 70 67 68 70 69 68 69
5 12 6 7 4 7 8 10 8 10 17 22 29 30 25 18 37 33 34 35 36 35 32 34 39 42 47 57 65 71 73 68 70 75 79 81 78 78 79 81 81 77 72 70 69 68 65 67 66
4 4 12 9 5 9 2 11 12 14 16 16 38 35 32 30 43 33 33 34 38 37 33 34 39 43 49 58 66 72 74 69 72 77 83 80 79 79 79 79 80 78 75 71 70 68 65 64 65
3 8 6 8 8 2 5 13 9 21 17 19 26 28 30 33 43 33 32 33 35 40 41 41 43 46 52 59 68 74 77 73 72 81 85 78 80 81 84 83 80 77 73 71 70 70 66 64 64
Wind_Direction_850mb
51 23 8 48 63 64 53 26 323 9 58 50 69 78 82 51 18 80 341 337 96 179 175 165 168 168 171 164 155 161 154 149 139 112 86 54 47 85 118 138 148 139 126 164 194 187 170 156 152
324 29 52 79 80 74 48 351 350 307 318 320 51 66 55 70 22 348 37 46 115 164 163 155 158 167 162 152 158 153 151 146 131 102 52 2 342 343 309 189 179 178 145 139 158 199 184 173 167
185 34 46 55 66 61 350 10 315 315 27 87 101 51 42 343 348 354 6 40 134 154 158 168 164 172 157 179 170 160 155 150 125 22 358 343 333 332 319 276 222 198 192 164 178 197 169 182 185
179 68 45 61 71 38 32 326 325 328 44 64 101 80 83 18 359 2 28 67 161 161 171 175 163 152 183 179 179 174 185 173 93 18 359 347 340 331 326 324 264 226 222 204 191 194 185 195 202
125 76 77 67 51 59 31 12 32 45 55 25 44 87 71 12 30 39 43 99 157 166 179 176 181 175 167 221 213 214 224 261 329 351 351 346 343 342 345 353 19 263 173 186 186 183 201 213 219
78 92 104 106 105 39 22 19 34 37 29 15 53 85 69 11 29 47 55 76 102 161 185 184 178 178 175 186 232 244 241 281 313 327 331 336 336 334 337 347 352 8 169 179 189 203 217 228 233
90 70 105 118 90 43 24 24 31 36 36 20 31 62 46 26 34 50 54 64 85 131 190 165 167 186 191 198 207 255 282 292 303 305 308 315 322 318 311 297 269 245 207 212 215 223 228 237 243
108 98 111 109 116 78 43 57 52 49 37 42 51 34 10 17 41 56 57 61 65 115 143 183 127 204 211 215 212 219 257 307 312 307 300 299 303 300 293 285 270 254 248 243 238 235 237 238 241
69 87 128 130 127 113 65 79 63 67 65 61 67 59 45 45 53 56 58 58 65 69 72 69 4 294 258 232 227 231 245 253 292 313 314 306 299 296 289 284 275 267 258 255 252 248 245 245 246
38 82 57 94 111 94 65 69 84 62 54 52 52 55 57 56 56 54 53 49 46 46 45 51 52 59 142 239 248 241 236 232 248 261 284 304 303 298 292 286 279 270 265 259 254 252 251 251 253
19 90 100 92 107 98 83 56 58 49 49 38 37 37 48 55 55 55 55 54 51 46 43 41 41 38 56 67 50 63 47 213 227 257 258 262 277 291 296 293 286 279 272 267 264 261 260 257 258
90 68 63 80 84 85 73 83 63 60 61 49 47 52 55 55 52 50 51 50 50 47 45 42 35 39 31 39 49 31 334 35 354 257 244 267 271 273 273 281 289 287 279 274 270 268 266 263 262
68 89 76 84 79 81 82 72 69 54 54 62 53 53 58 59 56 54 51 47 45 46 42 43 42 41 43 39 27 30 20 20 23 29 347 293 267 269 264 268 268 275 280 279 273 271 269 268 266
106 83 70 76 85 78 74 51 73 43 54 55 59 58 56 54 53 52 46 45 44 39 39 38 35 36 39 41 39 34 36 27 15 360 8 11 3 323 290 266 256 266 274 273 272 272 271 269 267
114 100 79 25 46 142 85 40 47 54 55 59 57 61 64 60 54 49 45 42 38 35 33 33 34 32 31 32 35 36 32 33 32 30 10 1 353 347 356 320 263 259 265 264 267 267 268 267 267
44 61 72 23 24 42 75 84 42 69 71 58 58 61 62 58 54 50 45 41 37 33 31 29 28 28 29 28 27 28 26 24 24 24 22 19 17 4 336 340 335 333 285 284 265 276 266 263 265
17 73 27 41 13 114 104 124 126 68 71 66 60 62 59 57 55 50 44 40 35 32 28 25 23 25 26 27 26 25 24 22 19 17 18 16 15 11 12 360 337 320 331 329 297 263 265 272 261
53 97 52 54 7 77 94 114 107 90 84 76 70 66 61 55 50 46 43 37 32 29 27 25 24 24 22 23 25 26 24 22 19 16 13 8 5 4 4 1 0 354 336 309 319 311 287 263 270
97 89 93 49 306 60 73 100 95 94 87 81 76 70 63 54 48 41 37 31 27 24 22 22 20 20 19 19 17 20 22 23 23 20 16 11 6 3 1 358 358 358 0 351 344 303 319 306 299
70 90 71 106 38 86 122 93 106 90 74 80 76 64 59 53 43 36 28 24 20 18 20 20 20 18 20 18 17 15 16 16 17 17 17 13 11 8 4 359 356 354 351 353 354 351 326 290 321
33 85 127 123 103 66 131 151 190 176 128 92 79 69 59 44 32 26 19 13 9 13 17 17 17 16 15 14 11 9 7 8 6 8 8 9 7 6 5 3 359 354 350 348 349 348 348 334 314
72 353 132 116 86 143 16 261 250 194 199 183 114 79 58 38 28 17 9 4 1 6 11 14 13 15 17 15 13 10 6 2 359 356 356 358 0 0 359 359 359 358 355 349 346 344 342 338 332
90 133 95 90 87 90 345 65 261 140 231 223 210 149 64 33 16 7 2 0 1 357 4 8 11 11 10 8 6 4 2 359 354 349 348 349 350 352 352 352 352 352 352 351 346 341 337 335 334
124 94 49 55 77 36 256 121 248 192 204 185 206 204 197 20 9 358 356 353 352 354 355 357 3 5 4 4 2 360 357 354 350 348 346 344 344 344 344 343 344 345 345 345 344 342 337 330 325
60 59 358 6 15 208 344 51 245 229 216 197 192 204 216 284 341 346 344 348 350 348 340 345 350 356 358 358 357 356 355 354 351 347 345 342 340 339 338 338 336 336 337 337 338 339 337 331 325
48 130 140 195 285 270 333 242 250 247 195 184 198 208 234 284 327 338 342 343 342 342 331 336 341 346 351 352 352 352 351 350 348 346 343 339 336 334 333 333 331 330 328 328 330 331 333 331 326
266 52 155 104 70 38 270 283 277 168 208 207 214 229 248 286 332 339 344 346 343 337 329 328 333 338 342 345 346 348 347 344 342 340 339 336 333 330 329 328 327 325 324 324 324 324 325 325 325
90 141 64 12 60 313 292 282 242 214 226 227 234 239 249 276 330 334 339 341 339 332 323 323 327 328 333 337 340 342 343 340 337 336 336 334 330 327 325 324 324 323 322 322 322 322 320 319 321
19 29 50 107 104 160 269 272 209 209 211 217 234 242 255 258 325 320 326 333 339 335 325 320 323 322 325 330 334 336 339 336 334 333 332 330 328 327 325 322 320 319 319 320 321 320 318 315 315
185 188 137 113 258 80 127 272 217 214 218 228 234 236 264 271 309 306 315 325 338 341 331 323 321 320 323 324 329 332 334 332 328 328 328 327 325 324 323 322 320 317 315 317 318 317 316 314 312